Date String (YYYY-MM-DD hh:mm:ss) UTC,Instrument flags,Ambient pressure (hPa),Sample flow (lpm),Bypass flow (lpm),Sample temperature (°C),Ambient temperature (°C),ASC tube jacket temperature (°C),LED temperature (°C),Box temperature (°C),Sample RH (%),Span deviation,Mass concentration (μg/m³),Mass concentration (μg/m³),Mass concentration (μg/m³)
DateTimeUTC,F1_M11,P_M11,Q1_M11,Q2_M11,T1_M11,T2_M11,T3_M11,T4_M11,T5_M11,U1_M11,ZSPAN_M11,X0_M11,X2_M11,X1_M11
2023-04-08 01:00:00,,0829.6,5.00,0.00,26.8,25.2,00.0,35.2,28.3,08.0,0000.0,0011.65,0004.20,0003.44
2023-04-08 01:01:00,,0829.6,5.01,0.00,26.8,25.2,00.0,35.2,28.3,08.1,0000.0,0011.53,0004.25,0003.48
2023-04-08 01:02:00,,0829.6,5.00,0.00,26.8,25.1,00.0,35.2,28.3,08.0,0000.0,0011.06,0004.25,0003.49
2023-04-08 01:03:00,,0829.6,5.01,0.00,26.8,25.1,00.0,35.2,28.3,08.2,0000.0,0011.08,0004.22,0003.49
2023-04-08 01:04:00,,0829.6,5.00,0.00,26.8,25.1,00.0,35.2,28.3,08.4,0000.0,0010.73,0004.16,0003.48
2023-04-08 01:05:00,,0829.6,5.00,0.00,26.8,25.2,00.0,35.2,28.3,08.3,0000.0,0010.20,0004.12,0003.46
2023-04-08 01:06:00,,0829.6,4.99,0.00,26.8,25.2,00.0,35.2,28.3,08.3,0000.0,0010.06,0004.07,0003.45
2023-04-08 01:07:00,,0829.6,4.99,0.00,26.8,25.2,00.0,35.2,28.3,08.3,0000.0,0009.94,0004.05,0003.44
2023-04-08 01:08:00,,0829.6,4.99,0.00,26.8,25.2,00.0,35.2,28.3,08.2,0000.0,0009.75,0004.06,0003.42
2023-04-08 01:09:00,,0829.6,5.00,0.00,26.8,25.2,00.0,35.2,28.3,08.3,0000.0,0009.67,0004.02,0003.40
2023-04-08 01:10:00,,0829.6,5.00,0.00,26.8,25.2,00.0,35.2,28.3,08.2,0000.0,0009.84,0003.98,0003.38
2023-04-08 01:11:00,,0829.6,5.01,0.00,26.8,25.2,00.0,35.2,28.3,08.1,0000.0,0009.79,0003.93,0003.35
2023-04-08 01:12:00,,0829.6,5.01,0.00,26.8,25.2,00.0,35.2,28.4,08.1,0000.0,0010.31,0003.90,0003.30
2023-04-08 01:13:00,,0829.7,5.01,0.00,26.8,25.2,00.0,35.2,28.3,08.1,0000.0,0010.42,0003.88,0003.28
2023-04-08 01:14:00,,0829.6,4.98,0.00,26.8,25.2,00.0,35.2,28.3,08.0,0000.0,0010.77,0003.92,0003.28
2023-04-08 01:15:00,,0829.7,5.01,0.00,26.8,25.2,00.0,35.2,28.3,08.0,0000.0,0010.39,0003.92,0003.28
2023-04-08 01:16:00,,0829.7,5.00,0.00,26.8,25.2,00.0,35.2,28.3,08.0,0000.0,0010.47,0003.96,0003.29
2023-04-08 01:17:00,,0829.7,4.99,0.00,26.8,25.1,00.0,35.2,28.3,08.0,0000.0,0010.51,0003.97,0003.29
2023-04-08 01:18:00,,0829.7,4.99,0.00,26.8,25.1,00.0,35.2,28.3,08.0,0000.0,0010.40,0003.96,0003.28
2023-04-08 01:19:00,,0829.7,5.00,0.00,26.8,25.1,00.0,35.2,28.3,08.0,0000.0,0011.17,0003.93,0003.27
2023-04-08 01:20:00,,0829.7,5.01,0.00,26.7,25.1,00.0,35.2,28.3,08.0,0000.0,0011.30,0003.90,0003.24
2023-04-08 01:21:00,,0829.6,5.01,0.00,26.7,25.0,00.0,35.1,28.3,08.0,0000.0,0011.16,0003.88,0003.21
2023-04-08 01:22:00,,0829.7,5.01,0.00,26.7,25.0,00.0,35.1,28.2,08.1,0000.0,0010.91,0003.85,0003.18
2023-04-08 01:23:00,,0829.7,5.01,0.00,26.7,25.0,00.0,35.1,28.2,08.2,0000.0,0010.31,0003.85,0003.16
2023-04-08 01:24:00,,0829.7,5.01,0.00,26.7,25.0,00.0,35.1,28.2,08.5,0000.0,0010.43,0003.82,0003.14
2023-04-08 01:25:00,,0829.7,5.00,0.00,26.7,24.9,00.0,35.1,28.2,08.5,0000.0,0010.21,0003.79,0003.12
2023-04-08 01:26:00,,0829.7,5.01,0.00,26.7,24.9,00.0,35.1,28.2,08.1,0000.0,0010.02,0003.77,0003.10
2023-04-08 01:27:00,,0829.7,5.00,0.00,26.6,24.8,00.0,35.1,28.1,07.9,0000.0,0010.20,0003.73,0003.07
2023-04-08 01:28:00,,0829.7,4.99,0.00,26.6,24.8,00.0,35.1,28.1,07.9,0000.0,0010.28,0003.73,0003.04
2023-04-08 01:29:00,,0829.7,5.01,0.00,26.6,24.7,00.0,35.1,28.0,07.8,0000.0,0010.30,0003.74,0003.00
2023-04-08 01:30:00,,0829.7,5.00,0.00,26.5,24.7,00.0,35.1,28.0,07.9,0000.0,0009.63,0003.75,0003.00
2023-04-08 01:31:00,,0829.7,5.00,0.00,26.5,24.7,00.0,35.0,28.0,08.0,0000.0,0009.81,0003.75,0003.00
2023-04-08 01:32:00,,0829.7,5.01,0.00,26.5,24.7,00.0,35.0,28.0,08.1,0000.0,0009.90,0003.77,0003.02
2023-04-08 01:33:00,,0829.7,5.00,0.00,26.5,24.6,00.0,35.0,28.0,08.1,0000.0,0009.94,0003.79,0003.04
2023-04-08 01:34:00,,0829.7,5.00,0.00,26.4,24.6,00.0,35.0,27.9,08.2,0000.0,0009.95,0003.80,0003.04
2023-04-08 01:35:00,,0829.7,5.00,0.00,26.4,24.7,00.0,35.0,28.0,07.7,0000.0,0009.82,0003.79,0003.04
2023-04-08 01:36:00,,0829.7,5.00,0.00,26.5,24.7,00.0,35.0,28.0,07.6,0000.0,0009.34,0003.80,0003.05
2023-04-08 01:37:00,,0829.7,5.00,0.00,26.5,24.7,00.0,34.9,28.0,07.7,0000.0,0009.35,0003.80,0003.03
2023-04-08 01:38:00,,0829.7,5.00,0.00,26.5,24.8,00.0,34.9,28.1,07.7,0000.0,0009.11,0003.79,0002.98
2023-04-08 01:39:00,,0829.7,5.01,0.00,26.5,24.9,00.0,34.9,28.1,07.6,0000.0,0009.07,0003.80,0002.95
2023-04-08 01:40:00,,0829.7,4.99,0.00,26.5,24.9,00.0,34.9,28.1,07.6,0000.0,0009.16,0003.80,0002.95
2023-04-08 01:41:00,,0829.7,5.00,0.00,26.5,25.0,00.0,34.9,28.1,07.7,0000.0,0009.02,0003.81,0002.92
2023-04-08 01:42:00,,0829.7,4.99,0.00,26.6,25.1,00.0,34.9,28.1,07.9,0000.0,0008.47,0003.77,0002.87
2023-04-08 01:43:00,,0829.7,4.99,0.00,26.6,25.1,00.0,34.9,28.2,07.8,0000.0,0007.84,0003.73,0002.82
2023-04-08 01:44:00,,0829.7,5.01,0.00,26.6,25.2,00.0,34.9,28.2,07.6,0000.0,0007.97,0003.74,0002.78
2023-04-08 01:45:00,,0829.7,5.00,0.00,26.6,25.2,00.0,34.9,28.2,07.6,0000.0,0008.28,0003.75,0002.76
2023-04-08 01:46:00,,0829.7,5.00,0.00,26.6,25.2,00.0,35.0,28.2,07.6,0000.0,0008.27,0003.72,0002.74
2023-04-08 01:47:00,,0829.7,5.01,0.00,26.6,25.2,00.0,35.0,28.2,07.7,0000.0,0008.21,0003.68,0002.74
2023-04-08 01:48:00,,0829.7,4.99,0.00,26.6,25.1,00.0,35.0,28.1,07.8,0000.0,0008.45,0003.69,0002.77
2023-04-08 01:49:00,,0829.7,5.00,0.00,26.6,25.0,00.0,34.9,28.1,07.9,0000.0,0008.52,0003.72,0002.83
2023-04-08 01:50:00,,0829.7,5.00,0.00,26.6,24.9,00.0,34.9,28.1,08.1,0000.0,0008.55,0003.73,0002.88
2023-04-08 01:51:00,,0829.7,4.99,0.00,26.6,24.9,00.0,34.9,28.1,08.2,0000.0,0008.63,0003.75,0002.93
2023-04-08 01:52:00,,0829.7,5.00,0.00,26.5,24.8,00.0,34.9,28.0,08.3,0000.0,0008.96,0003.82,0003.03
2023-04-08 01:53:00,,0829.7,5.00,0.00,26.5,24.8,00.0,34.9,28.0,08.4,0000.0,0009.08,0003.93,0003.16
2023-04-08 01:54:00,,0829.7,5.00,0.00,26.5,24.7,00.0,34.9,27.9,08.5,0000.0,0009.25,0004.07,0003.28
2023-04-08 01:55:00,,0829.6,5.00,0.00,26.4,24.6,00.0,34.9,27.8,08.4,0000.0,0009.71,0004.19,0003.43
2023-04-08 01:56:00,,0829.7,5.00,0.00,26.3,24.4,00.0,34.9,27.8,08.4,0000.0,0009.66,0004.33,0003.60
2023-04-08 01:57:00,,0829.7,5.00,0.00,26.3,24.3,00.0,34.9,27.7,08.4,0000.0,0009.70,0004.49,0003.74
2023-04-08 01:58:00,,0829.7,5.00,0.00,26.3,24.3,00.0,34.8,27.7,08.4,0003.8,0009.90,0004.61,0003.83
2023-04-08 01:59:00,,0829.7,5.00,0.00,26.3,24.3,00.0,34.8,27.7,08.5,0004.6,0009.70,0004.73,0003.94
